Location: Cedar Brake
(32.2526°N, 97.8459°W)
Time: 08:06:35
(UTC+00:00)

USA 234 - Pass Details

Date: 22 April 2026
Orbit: 1102 x 1106 km, 123.0° (Epoch: 4 January)

Event Time Altitude Azimuth Distance (km) Brightness Sun altitude
Rises 02:22:10 0° 39° (NE) 3,923 6.0 -16.0°
Reaches altitude 10° 02:24:39 10° 37° (NE) 2,963 5.4 -16.5°
Maximum altitude 02:31:10 72° 315° (NW) 1,154 3.5 -17.7°
Drops below altitude 10° 02:37:40 10° 232° (SW) 2,955 5.8 -18.9°
Sets 02:40:08 0° 230° (SW) 3,911 6.4 -19.4°
